Regional Weather Roundup
Issued by NWS

Home | Current Version | Previous Version | Text Only | Print | Product List | Glossary Off
Versions: 1 2 3 4 5 6 7 8 9 10 11 12 13 14 15 16 17 18 19 20 21 22 23 24 25 26 27 28 29 30 31 32 33 34 35 36 37 38 39 40 41 42 43 44 45 46 47 48 49 50

000
ASUS45 KBOU 042110
RWRCO

WEATHER ROUNDUP FOR COLORADO
NATIONAL WEATHER SERVICE DENVER/BOULDER CO
300 PM MDT SAT JUL 04 2015

NOTE: "FAIR" INDICATES FEW OR NO CLOUDS BELOW 12000 FEET WITH NO
SIGNIFICANT WEATHER AND/OR OBSTRUCTIONS TO VISIBILITY.

COZ001>005-013-030-031-042200-
...NORTHWEST COLORADO...

CITY           SKY/WX    TMP DP  RH WIND       PRES   REMARKS
CRAIG          PTSUNNY   88  44  21 SW8       30.05F
HAYDEN         MOSUNNY   79  45  29 NE15      30.10S
MEEKER         MOSUNNY   88  46  23 S7        30.09F
MOUNT WERNER   NOT AVBL
STEAMBOAT SPGS MOSUNNY   76  44  31 W15G33    30.14R
WALDEN         MOSUNNY   77  39  25 E6        30.23F
$$

COZ006>008-011-042200-
...WEST CENTRAL VALLEYS...

CITY           SKY/WX    TMP DP  RH WIND       PRES   REMARKS
GRAND JUNCTION MOSUNNY   92  48  22 VRB6      29.95F
MONTROSE       MOSUNNY   88  49  25 VRB6      30.06F
EAGLE          MOSUNNY   75  46  35 W6G28     30.16S
RIFLE          MOSUNNY   91  50  24 MISG      30.01F
DELTA          MOSUNNY   91  46  20 S5        30.01F
NUCLA          MOSUNNY   88  43  20 N8        30.10F
$$

COZ017>023-064>068-042200-
...SOUTHWEST COLORADO...

CITY           SKY/WX    TMP DP  RH WIND       PRES   REMARKS
DURANGO        MOSUNNY   85  44  23 SW9       30.13F
CORTEZ         SUNNY     88  47  24 VRB6      30.07F
PAGOSA SPRINGS MOSUNNY   81  43  26 CALM      30.22F THUNDER
TELLURIDE      CLOUDY    61  49  65 SE21      30.41R
WOLF CREEK PAS NOT AVBL
$$

COZ009-010-012-014-032>034-037-058>063-042200-
...CENTRAL COLORADO...

CITY           SKY/WX    TMP DP  RH WIND       PRES   REMARKS
ASPEN          MOSUNNY   82  47  29 SW12      30.21F
BUENA VISTA    CLOUDY    69  44  41 SE9       30.25R
COPPER MTN     PTSUNNY   61  36  39 W18G26    30.59S
BERTHOUD PASS  FAIR      55  45  67 MISG      30.63S
COTTONWOOD PAS NOT AVBL
GUNNISON       MOSUNNY   79  46  31 SW6       30.23F
KREMMLING      PTSUNNY   79  39  24 S15G21    30.20R
LEADVILLE      TSTM      55  45  68 N22G31    30.41R
MONARCH PASS   CLOUDY    57  41  54 NW5       30.69S
SALIDA         CLOUDY    73  43  33 S6G21     30.29S
SUNLIGHT       PTSUNNY   70  48  46 CALM      30.51S
WILKERSON PASS PTSUNNY   57  39  51 SE6       30.54S
$$

COZ069>075-042200-
...SAN LUIS VALLEY/SANGRE DE CRISTO MOUNTAINS...

CITY           SKY/WX    TMP DP  RH WIND       PRES   REMARKS
ALAMOSA        MOSUNNY   82  47  29 CALM      30.19F
LA VETA PASS   PTSUNNY   64  39  39 MISG      30.43S
SAGUACHE       MOSUNNY   79  50  36 S10       30.22F
$$

COZ035-036-038>040-042200-
...NORTHERN COLORADO FRONT RANGE...

CITY           SKY/WX    TMP DP  RH WIND       PRES   REMARKS
DENVER INTL AP MOSUNNY   93  41  16 VRB3      29.98F
DMNS CITY PARK   N/A     92  45  20 E9G18     29.97F
AURORA         PTSUNNY   92  47  21 NE9       30.01F
FRONT RANGE AP MOSUNNY   91  46  21 NE8       30.00F
ERIE MUNI ARPT MOSUNNY   91  41  17 N5        29.96S
BOULDER MUN AP MOSUNNY   90  46  22 CALM      29.97S
CENTENNIAL     MOSUNNY   91  42  18 NE10      30.02F
BROOMFIELD     NOT AVBL
FORT COLLINS   MOSUNNY   91  52  25 NW6       29.93S
LONGMONT       MOSUNNY   95  48  19 N7        29.97S
$$

COZ041-046-047-076>085-087-088-042200-
...PIKES PEAK/PALMER DIVIDE AND SOUTHERN FOOTHILLS...

CITY           SKY/WX    TMP DP  RH WIND       PRES   REMARKS
COLO. SPRINGS  PTSUNNY   79  48  33 W12       30.09F
A. F. ACADEMY  PTSUNNY   78  48  34 SE12      30.09F
ELLICOTT       TSTM     N/A N/A N/A W15       30.06F
FALCON         PTSUNNY   78  45  31 SW14      30.15F
FORT CARSON    CLOUDY    80  48  32 VRB1      30.04F
LIMON          SUNNY     85  54  34 S10       30.00F
MONUMENT HILL  NOT AVBL
TRINIDAD       MOSUNNY   92  44  19 W5        30.03F
$$

COZ042>045-048>051-090-091-042200-
...NORTHEAST COLORADO...

CITY           SKY/WX    TMP DP  RH WIND       PRES   REMARKS
GREELEY ARPT   MOSUNNY   91  57  31 SE6       29.93F
AKRON          SUNNY     92  54  27 S15G25    29.93F
BURLINGTON     SUNNY     93  52  24 S16G25    29.95F
WRAY           SUNNY     98  51  20 S15G21    29.89F
STERLING       SUNNY     97  54  23 S9G16       N/A
HOLYOKE        SUNNY     95  55  26 S13G23    29.90F
FORT MORGAN    SUNNY     93  49  22 E5        29.93F
$$

COZ086-089-092>099-042200-
...SOUTHEAST COLORADO...

CITY           SKY/WX    TMP DP  RH WIND       PRES   REMARKS
PUEBLO         PTSUNNY   96  46  18 VRB5      29.94F
LA JUNTA       MOSUNNY   98  49  18 SE6       29.90F
LAMAR          SUNNY     98  54  22 S10G17    29.86F
SPRINGFIELD      N/A     95  53  24 S22G28    29.95F
$$


USA.gov is the U.S. government's official web portal to all federal, state and local government web resources and services.